sat.trackr.live / text

‹ back to catalog

STARLINK-5875

NORAD 57221 · 2023-094D

PAYLOAD ACTIVE UNKNOWN

§ Identity

Operator
Country
US
Launch date
2023-07-07
Launch site
AFWTR
Launch vehicle
Mass (kg)
RCS (m²)

Purposes: comms

External: N2YO · Heavens-Above · Gunter

§ Orbital elements

Epoch: 2026-07-02T21:51:05.057280Z

Period
87.51 min
Inclination
42.9873°
Eccentricity
0.0007675
Mean motion
16.45464539 rev/d
Perigee alt
146.3 km
Apogee alt
156.3 km
Semi-major
6,529.4 km
B*
2.6101e-4
RAAN
80.6743°
Arg perigee
258.7725°
Mean anomaly
101.2308°
Rev number
16,495

§ Raw data

STARLINK-58751 57221U 23094D   26183.91047520  .10182702  94008-5  26101-3 0  99932 57221  42.9873  80.6743 0007675 258.7725 101.2308 16.45464539164958

JSON: /api/v1/satellites/57221 · /tle

For live sub-satellite position, see the globe view (requires WebGL).

§ Visibility from observer

Set your observer location to see the next 7 days of passes ≥ 10°. The values pass through the URL so the page stays shareable.

No JS? Fill the form by hand. The geolocation button needs JavaScript.